Location: Chuathbaluk
(61.5726°N, 159.2454°W)
Time: 14:04:28
(UTC+00:00)

XW-2F - Pass Details

Date: 24 January 2021
Orbit: 500 x 520 km, 97.5° (Epoch: 01 March)

Event Time Altitude Azimuth Distance (km) Brightness Sun altitude
Rises 16:32:30 0° 19° (NNE) 2,664 ? -18.6°
Reaches altitude 10° 16:34:43 10° 27° (NNE) 1,772 ? -18.4°
Maximum altitude 16:38:20 39° 98° (E) 796 ? -17.9°
Drops below altitude 10° 16:41:55 10° 169° (SSE) 1,760 ? -17.5°
Sets 16:44:07 0° 177° (S) 2,643 ? -17.3°
